CZ-6A DEB

Satellite information

Favourite Embed

Satellite Type and Status

DEBRISIN ORBIT

Key statistics

Satellite CZ-6A DEB at a glance.

Uptime

1129

Days in orbit

Revolutions

≈ 14.4

Per day

Orbit

SSO

Sun Synchronous Orbit

Inclination

98.8

Latest

Satellite identification and parameters

Extended collection of information and parameters for CZ-6A DEB.

Object identification

Identified? True

Debris? True

Object name: CZ-6A DEB

International designator: 2022-151WB

Object number (NORAD): 55210

Object ID (CCSDS): 55210

Country: PEOPLES REPUBLIC OF CHINA (PRC)

Current information (Y/N): Y

RCS size: SMALL

Orbital parameters

Period: 100.246 minutes

Inclination: 98.761 deg

SMA: 7148.349 km

Apoapsis: 799.004 km

Periapsis: 741.425 km

RAAN: 11.8191 deg

Eccentricy: 0.0040274

Argument of periapsis: 134.0781 deg

Mean anomaly: 226.3732 deg

Mean motion: 14.36461894 rev/day

Mean motion (dot): 0.00009236 rev/day2

B* drag term: 0.003132 1/REarth

Two-line elements (TLE)

Creation date: Dec. 12, 2025, 7:26 a.m.

Reference frame: TEME

Reference center: EARTH

Epoch: Dec. 12, 2025, 12:49 a.m. UTC

TLE line 0: 0 CZ-6A DEB

TLE line 1: 1 55210U 22151WB 25346.03463948 .00009236 00000-0 31320-2 0 9992

TLE line 2: 2 55210 98.7610 11.8191 0040274 134.0781 226.3732 14.36461894155033

Live tracking on map

Real-time ground track for satellite CZ-6A DEB.

In-orbit conjunctions

A list of the most updated potential collisions computed for object CZ-6A DEB.

Target Orbit TCA Probability of collision Miss distance Type
CZ-6A DEB LEO 2025-04-10 10:33:33 0.0001316397 131.0 (m) DEBRIS
METEOR 2-8 DEB LEO 2025-01-16 19:29:49 0.0001307063 154.0 (m) DEBRIS
ADEOS 2 SSO 2025-01-16 01:52:18 0.0002361313 475.0 (m) PAYLOAD
METEOR 2-6 LEO 2024-08-16 09:22:49 0.0001945668 50.0 (m) PAYLOAD

Associated space launch

Chinese satellite reported for atmospheric/ocean/environmental/spatial parameter research purposes, details TBD.

CZ-6A DEB was lifted into orbit during the mission ‘Long March 6A | Yunhai 3’, on board a Long March 6A space rocket.

The launch took place on Nov. 11, 2022, 10:52 p.m. from Launch Complex 9A.

For more information about the launch, click the button.

Launch to space Long March 6A | Yunhai 3
Long March 6A | Yunhai 3

Agency: N/A

Status: Launch Successful

Launch date: Nov. 11, 2022, 10:52 p.m. UTC

Rocket: Long March 6A

Launch pad: Launch Complex 9A

Location: Taiyuan Satellite Launch Center, People's Republic of China

...

Latest news about this satellite

There are no fresh news available about this satellite. Check back as we update our databases every day.


Newsletter sign-up

Weekly statistics, charts and insights to help you stay on top of the space industry.